Location: Antagada
(14.7680°N, 3.0600°W)
Time: 07:44:12
(UTC+00:00)

Daily predictions for brighter satellites

Satellite Brightness Start Highest point End
(mag) Time Altitude Azimuth Time Altitude Azimuth Time Altitude Azimuth
ATLAS 5 CENTAUR R/B 1.1 17:57:23 10° W 17:59:58 70° SSW 18:06:55 10° ESE
Ariane H10-3 4.0 18:00:54 10° SW 18:03:31 32° SSE 18:10:37 10° ESE
GPS 2-14 Rocket1 3.3 18:00:06 10° W 18:04:01 44° N 18:07:50 10° ENE
FALCON 9 DEB 3.7 18:06:33 10° S 18:08:22 21° SE 18:10:11 10° ENE
NOSS 2-1 (E) 3.1 18:05:36 10° SSW 18:09:45 84° ESE 18:13:14 10° NNE
Aureole 3 Rocket 3.9 18:09:50 10° NNE 18:12:52 25° E 18:16:36 10° SE
Centaur AC-116 3.5 18:11:26 10° WNW 18:13:14 20° NNW 18:15:03 10° NE
Meteor 2-4 Rocket 3.8 18:07:22 10° S 18:13:18 84° E 18:19:08 10° N
ADEOS Rocket 4.4 18:10:45 10° ENE 18:13:58 15° E 18:17:19 10° SE
Cosmos 2266 Rocket 4.2 18:08:59 10° S 18:15:14 58° E 18:21:30 10° NNE
H-2A R/B 3.8 18:14:48 10° S 18:18:22 47° W 18:21:56 10° NNW
YAOGAN 6 3.2 18:15:36 10° SE 18:18:47 33° ENE 18:22:00 10° NNE
Cosmos 405 Rocket 3.5 18:19:29 10° NNE 18:22:47 29° E 18:26:10 10° SE
Star 48 S/N 10017-12 3.5 18:28:38 10° WNW 18:31:04 88° NNE 18:34:29 10° ESE
Starlink Launch 2 leader 2.2 18:29:03 10° SSW 18:31:28 65° SE 18:32:55 21° NE
S3M 4.0 18:26:26 10° N 18:32:24 56° E 18:38:21 10° SSE
Cosmos 2151 Rocket 4.0 18:28:52 10° NNE 18:32:58 38° E 18:37:03 10° SSE
Cosmos 1867 3.8 18:28:43 10° N 18:33:51 44° ENE 18:38:57 10° SE
Shenzhou-11 Module 2.4 18:32:30 10° NNW 18:35:01 33° NE 18:36:10 22° E
Starlink Launch 2 trailer 2.1 18:32:42 10° SSW 18:35:08 80° SE 18:36:28 23° NE
OAO 3 Rocket 4.5 18:36:10 10° NNW 18:39:47 21° NNE 18:41:16 19° NE
STARLINK 1042 4.4 18:37:35 10° S 18:40:50 29° ESE 18:42:14 22° E
CZ-4 R/B 1.4 18:37:37 10° SSE 18:41:25 50° ENE 18:45:10 10° N
Cosmos 1553 Rocket 4.2 18:35:31 10° N 18:41:56 82° W 18:48:19 10° S
IRIDIUM 104 4.5 18:38:44 10° S 18:43:56 77° W 18:49:08 10° N
STARLINK 1056 4.2 18:41:14 10° S 18:44:35 32° SE 18:45:51 25° E
Cosmos 489 Rocket 4.4 18:38:39 10° N 18:45:00 76° ENE 18:51:18 10° SSE
FALCON 9 DEB 2.7 18:43:07 10° SW 18:45:21 50° NW 18:46:08 31° N
DMSP B5D1-3 4.5 18:40:26 10° NNE 18:45:32 89° WNW 18:50:38 10° SSW
Cosmos 1544 3.2 18:42:36 10° N 18:46:08 50° E 18:49:41 10° SSE
STARLINK 1054 4.0 18:44:56 10° SSW 18:48:22 36° ESE 18:49:31 29° E
STARLINK 1027 2.8 18:46:22 10° SSW 18:49:12 56° SE 18:49:53 41° ENE
STARLINK 1028 2.8 18:46:33 10° SSW 18:49:24 56° SE 18:50:04 42° ENE
STARLINK 1021 2.8 18:46:36 10° SSW 18:49:27 56° SE 18:50:07 42° ENE
STARLINK 1019 2.7 18:47:02 10° SSW 18:49:51 57° SE 18:50:29 43° ENE
STARLINK 1012 2.7 18:47:12 10° SSW 18:50:03 58° SE 18:50:42 43° ENE
STARLINK 1026 2.7 18:47:28 10° SSW 18:50:19 59° SE 18:50:58 43° ENE
STARLINK 1010 2.7 18:47:29 10° SSW 18:50:20 58° SE 18:50:58 44° ENE
STARLINK 1013 2.7 18:47:44 10° SSW 18:50:35 59° SE 18:51:14 44° ENE
Cosmos 405 4.4 18:47:24 10° SSW 18:50:43 39° W 18:54:02 10° NNW
STARLINK 1009 2.7 18:47:58 10° SSW 18:50:49 60° SE 18:51:27 45° ENE
STARLINK 1015 2.7 18:48:21 10° SSW 18:51:11 61° SE 18:51:48 46° ENE
STARLINK 1016 2.7 18:48:32 10° SSW 18:51:23 61° SE 18:51:59 46° ENE
Envisat 3.8 18:46:29 10° S 18:51:25 54° W 18:56:21 10° NNW
STARLINK 1008 2.7 18:48:36 10° SSW 18:51:28 62° SE 18:52:05 46° ENE
STARLINK 1014 2.7 18:48:52 10° SSW 18:51:44 63° SE 18:52:20 47° ENE
STARLINK 1025 2.6 18:49:04 10° SSW 18:51:55 63° SE 18:52:31 47° ENE
STARLINK 1062 3.9 18:48:32 10° SSW 18:52:02 41° SE 18:53:03 33° E
STARLINK 1017 2.6 18:49:24 10° SSW 18:52:16 64° SE 18:52:51 48° ENE
STARLINK 1023 2.6 18:49:37 10° SSW 18:52:29 65° SE 18:53:03 49° ENE
STARLINK 1007 2.6 18:49:52 10° SSW 18:52:44 65° SE 18:53:18 49° ENE
STARLINK 1048 2.6 18:50:03 10° SSW 18:52:55 66° SE 18:53:28 50° ENE
STARLINK 1049 2.6 18:50:17 10° SSW 18:53:09 67° SE 18:53:42 50° ENE
STARLINK 1051 2.6 18:50:34 10° SSW 18:53:27 68° SE 18:53:58 51° ENE
STARLINK 1037 2.6 18:50:43 10° SSW 18:53:36 68° SE 18:54:07 51° ENE
STARLINK 1059 2.6 18:51:01 10° SSW 18:53:53 69° SE 18:54:24 52° ENE
FALCON 9 DEB 3.5 18:51:55 10° WSW 18:54:01 32° NW 18:54:30 28° NNW
STARLINK 1057 2.6 18:51:14 10° SSW 18:54:07 70° SE 18:54:37 53° ENE
STARLINK 1052 2.6 18:51:18 10° SSW 18:54:11 70° SE 18:54:42 53° ENE
STARLINK 1068 2.5 18:51:41 10° SSW 18:54:34 71° SE 18:55:03 54° ENE
STARLINK 1040 2.5 18:51:48 10° SSW 18:54:41 82° SE 18:55:16 53° NE
STARLINK 1029 2.5 18:51:55 10° SSW 18:54:48 72° ESE 18:55:16 55° ENE
STARLINK 1060 2.5 18:52:08 10° SSW 18:55:01 73° SE 18:55:30 55° ENE
STARLINK 1030 2.5 18:52:18 10° SSW 18:55:10 73° SE 18:55:37 57° ENE
STARLINK 1020 2.5 18:52:34 10° SSW 18:55:27 74° SE 18:55:54 57° ENE
NOAA 11 4.5 18:50:36 10° SE 18:55:42 43° ENE 19:00:49 10° N
STARLINK 1034 2.5 18:52:48 10° SSW 18:55:42 75° SE 18:56:10 56° ENE
STARLINK 1053 3.7 18:52:21 10° SSW 18:55:56 47° SE 18:56:48 38° E
ASC 2 Rocket 4.4 18:50:30 10° WNW 18:56:00 67° SSW 19:04:25 10° ESE
STARLINK 1033 2.5 18:53:10 10° SSW 18:56:03 76° SE 18:56:29 58° ENE
SWIFT 2.2 18:51:55 10° WNW 18:56:11 90° NNE 18:58:17 29° ESE
STARLINK 1031 2.5 18:53:24 10° SSW 18:56:17 77° SE 18:56:43 59° ENE
STARLINK 1024 2.5 18:53:38 10° SSW 18:56:30 78° SE 18:56:54 61° ENE
STARLINK 1035 2.5 18:53:52 10° SSW 18:56:45 79° ESE 18:57:10 60° ENE
STARLINK 1032 2.5 18:53:55 10° SSW 18:56:48 79° SE 18:57:13 60° NE
STARLINK 1011 2.5 18:54:19 10° SSW 18:57:11 80° SE 18:57:33 63° NE
STARLINK 1036 2.5 18:54:29 10° SSW 18:57:22 81° SE 18:57:46 62° NE
STARLINK 1047 2.5 18:54:58 10° SSW 18:57:51 82° SE 18:58:14 64° NE
Okean 2 Rocket 4.1 18:54:42 10° NNW 18:59:03 49° W 19:03:24 10° SSW
STARLINK 1061 3.5 18:55:55 10° SSW 18:59:32 53° SE 19:00:17 44° E
CZ-3C R/B 3.3 18:55:49 10° WNW 19:00:08 63° N 19:12:49 23° E
CZ-3C R/B 3.3 18:55:49 10° WNW 19:00:08 63° N 19:12:52 23° E
CZ-3C R/B 3.3 18:55:49 10° WNW 19:00:09 63° N 19:12:51 23° E
STARLINK 1067 3.4 18:59:38 10° SSW 19:03:18 60° SE 19:03:55 51° E
STARLINK 1044 2.9 19:03:40 10° SW 19:06:29 59° NW 19:06:35 58° NW
Cosmos 1975 Rocket 3.2 19:02:53 10° SSE 19:07:00 45° E 19:07:21 44° ENE
STARLINK 1058 3.2 19:03:21 10° SSW 19:07:03 68° SE 19:07:31 59° ENE
STARLINK 1043 3.1 19:07:06 10° SSW 19:10:49 78° SE 19:11:09 69° ENE
GPS 2-17 Rocket1 3.0 19:06:27 10° WSW 19:10:59 72° SSE 19:12:00 50° E
CZ-2D R/B 3.1 19:07:33 10° SSE 19:11:21 62° ENE 19:11:37 60° NE
STARLINK 1065 3.1 19:10:50 10° SW 19:14:33 87° SE 19:14:45 79° NE
YAOGAN 1 2.7 19:10:18 10° S 19:14:35 72° WSW 19:18:54 10° NNW
Meteor 2-8 Rocket 4.3 19:10:35 10° N 19:16:35 66° E 19:22:36 10° SSE
Cosmos 883 Rocket 4.4 19:11:43 10° N 19:17:58 83° E 19:24:09 10° S
STARLINK 1063 3.2 19:14:39 10° SW 19:18:23 83° NW 19:18:26 82° NNW
Ariane H10+ 3.2 19:18:27 10° SW 19:21:32 33° SSE 19:24:23 24° ESE
Geosat 3.8 19:19:51 42° NNE 19:21:34 82° ESE 19:26:34 10° SSW
STARLINK 1064 3.4 19:18:23 10° SW 19:22:01 72° WNW 19:22:01 72° WNW
Cosmos 2315 Rocket 3.8 19:17:34 10° N 19:23:47 71° E 19:29:58 10° S
STARLINK 1041 3.7 19:22:12 10° SW 19:25:40 62° WNW 19:25:40 62° WNW
Cosmos 1939 Rocket 2.8 19:22:17 10° S 19:26:19 81° WSW 19:26:56 62° NNW
BREEZE-M DEB (TANK) 3.9 19:25:50 10° NW 19:28:58 61° SW 19:37:56 10° SSE
CZ-3B R/B 3.1 19:25:31 10° NW 19:28:23 22° N 19:28:23 22° N
Okean 2 4.4 19:25:17 10° S 19:27:50 35° SSE 19:27:50 35° SSE
Cosmos 2369 Rocket 2.1 19:23:49 10° NNW 19:29:28 86° WSW 19:35:10 10° SSE
STARLINK 1038 4.0 19:26:01 10° SW 19:29:19 53° W 19:29:19 53° W
STARLINK 1046 4.3 19:29:52 10° SW 19:33:00 46° W 19:33:00 46° W
Ariane Rocket 4.5 19:29:38 10° SSE 19:31:34 23° SSE 19:31:34 23° SSE
BLOCK DM-SL R/B 4.2 19:13:35 10° WSW 19:36:55 31° SSW 19:40:52 16° SSE
OAO 2 Rocket 3.8 19:37:09 10° NW 19:40:59 51° NNW 19:40:59 51° NNW
CZ-2C R/B 4.1 19:43:36 56° SSW 19:43:36 56° SSW 19:47:10 10° SSW
Cosmos 1943 Rocket 3.1 19:38:20 10° NNW 19:43:37 46° WSW 19:48:51 10° S
Cosmos 1809 Rocket 4.3 19:44:46 10° S 19:50:50 88° W 19:51:10 81° N
Okean 1 Rocket 4.1 19:52:01 44° WSW 19:52:01 44° WSW 19:55:51 10° SSW
ADEOS Rocket 4.0 19:56:24 23° NNW 19:59:18 40° WNW 20:04:49 10° SW
ATLAS 3B CENTAUR R/B 3.9 19:59:15 10° W 20:06:14 53° N 20:08:25 48° NNE
ATLAS CENTAUR R/B 4.2 20:14:24 10° SSW 20:15:17 15° SSW 20:15:17 15° SSW
H-2A R/B 4.3 20:05:21 10° WNW 20:26:02 36° SW 20:29:12 24° S
